Zurück zum Katalog

ONEWEB-0699

AktivKommunikationPO
NORAD 61605·PAYLOAD·🇬🇧 United Kingdom

Gestartet Oct 20, 2024 von Vandenberg Space Force Base

Loading…

Nächste Überflüge (nächste 24 Stunden)

TLE

AktuellSource: CelesTrak SupGP

Epoche: Sep 14, 2026, 23:01 UTC

1 61605C 24188M   26257.95921713 -.00001424  00000+0 -40828-2 0  2573
2 61605  87.8916  18.3924 0001273  82.0357  30.7498 13.10378095    13

Verfolge ONEWEB-0699 in Echtzeit mit AllMySat

Download on the App Store